Location: Bucksport
(44.6167°N, 68.8000°W)
Time: 20:59:27
(UTC-05:00)

OTV 5 (USA 277) - Visible Passes

Search period start: 19 February 2019 00:00
Search period end: 01 March 2019 00:00
Orbit: 342 x 346 km, 54.5° (Epoch: 17 February)

Date Brightness Start Highest point End Pass type
(mag) Time Alt. Az. Time Alt. Az. Time Alt. Az.
22 Feb ? 19:20:33 10° SW 19:20:40 11° SW 19:20:40 11° SW visible
23 Feb ? 18:10:30 10° S 18:12:22 16° SE 18:12:50 15° ESE visible
23 Feb ? 19:44:12 10° WSW 19:44:19 11° WSW 19:44:19 11° WSW visible
24 Feb ? 18:33:01 10° SW 18:35:48 49° SE 18:36:21 41° E visible
25 Feb ? 18:56:37 10° WSW 18:59:27 51° NNW 18:59:43 49° N visible
26 Feb ? 17:45:27 10° SSW 17:48:15 46° SE 17:51:02 10° ENE visible
26 Feb ? 19:20:53 10° W 19:22:57 23° NW 19:22:57 23° NW visible
27 Feb ? 18:09:02 10° WSW 18:11:53 53° NNW 18:14:39 11° NE visible
27 Feb ? 19:45:31 10° NW 19:46:06 12° NW 19:46:06 12° NW visible
28 Feb ? 18:33:16 10° W 18:35:43 24° NNW 18:37:42 13° NNE visible
